When you browse on this site, cookies collect data to enhance your experience and personalize the content and advertising you see.
Visit our Privacy Policy to learn more. By continuing to use the site, you agree to this use of cookies and data.
  • In Romania
  • List of Countries
  • For 7 days
  • Water Temperature
  • Satellite Maps
  • Weather Map
  • Weather Widgets
  • user-avatar
    Login

    Hourly Weather Santa Cruz

    Today, 24 May, Friday

    Time Temperature Precipitation Wind Pressure Humidity
    00:00 +14°C° 0 mm 3 mps 728 mmHg 74%
    01:00 +14°C° 0 mm 3 mps 728 mmHg 72%
    02:00 +14°C° 0 mm 4 mps 728 mmHg 66%
    03:00 +14°C° 0 mm 3 mps 728 mmHg 66%
    04:00 +14°C° 0 mm 3 mps 727 mmHg 66%
    05:00 +14°C° 0 mm 3 mps 727 mmHg 66%
    06:00 +14°C° 0 mm 3 mps 728 mmHg 67%
    07:00 +14°C° 0 mm 3 mps 728 mmHg 68%
    08:00 +14°C° 0 mm 3 mps 728 mmHg 69%
    09:00 +17°C° 0 mm 3 mps 728 mmHg 62%
    10:00 +19°C° 0 mm 3 mps 728 mmHg 55%
    11:00 +21°C° 0 mm 3 mps 729 mmHg 47%
    12:00 +22°C° 0 mm 3 mps 728 mmHg 44%
    13:00 +24°C° 0 mm 2 mps 727 mmHg 41%
    14:00 +25°C° 0 mm 2 mps 726 mmHg 38%
    15:00 +24°C° 0 mm 2 mps 726 mmHg 43%
    16:00 +23°C° 0 mm 1 mps 725 mmHg 49%
    17:00 +22°C° 0 mm 1 mps 725 mmHg 55%
    18:00 +20°C° 0 mm 1 mps 725 mmHg 57%
    19:00 +18°C° 0 mm 1 mps 725 mmHg 60%
    20:00 +16°C° 0 mm 1 mps 725 mmHg 63%
    21:00 +15°C° 0 mm 1 mps 725 mmHg 62%
    22:00 +15°C° 0 mm 1 mps 726 mmHg 61%
    23:00 +15°C° 0 mm 1 mps 726 mmHg 61%

    Tomorrow, 25 May, Saturday

    Time Temperature Precipitation Wind Pressure Humidity
    00:00 +14°C° 0 mm 1 mps 726 mmHg 60%
    01:00 +14°C° 0 mm 1 mps 725 mmHg 59%
    02:00 +14°C° 0 mm 1 mps 725 mmHg 58%
    03:00 +14°C° 0 mm 1 mps 725 mmHg 60%
    04:00 +12°C° 0 mm 0 mps 724 mmHg 61%
    05:00 +12°C° 0 mm 0 mps 724 mmHg 62%
    06:00 +13°C° 0 mm 0 mps 724 mmHg 62%
    07:00 +14°C° 0 mm 0 mps 724 mmHg 62%
    08:00 +15°C° 0 mm 0 mps 725 mmHg 61%
    09:00 +19°C° 0 mm 1 mps 725 mmHg 57%
    10:00 +22°C° 0 mm 1 mps 725 mmHg 52%
    11:00 +24°C° 0 mm 2 mps 724 mmHg 48%
    12:00 +25°C° 0 mm 3 mps 723 mmHg 48%
    13:00 +26°C° 0 mm 4 mps 723 mmHg 48%
    14:00 +27°C° 0 mm 4 mps 722 mmHg 49%
    15:00 +26°C° 0 mm 4 mps 721 mmHg 53%
    16:00 +25°C° 0 mm 4 mps 721 mmHg 58%
    17:00 +25°C° 0 mm 3 mps 720 mmHg 62%
    18:00 +24°C° 0 mm 3 mps 720 mmHg 63%
    19:00 +22°C° 0 mm 3 mps 721 mmHg 65%
    20:00 +21°C° 0 mm 3 mps 721 mmHg 67%
    21:00 +21°C° 0 mm 3 mps 721 mmHg 67%
    22:00 +21°C° 0 mm 3 mps 722 mmHg 67%
    23:00 +20°C° 0 mm 3 mps 722 mmHg 68%

    Day after tomorrow, 26 May, Sunday

    Time Temperature Precipitation Wind Pressure Humidity
    00:00 +21°C° 0 mm 3 mps 721 mmHg 68%
    01:00 +21°C° 0 mm 4 mps 721 mmHg 68%
    02:00 +21°C° 0 mm 4 mps 721 mmHg 69%
    03:00 +21°C° 0 mm 5 mps 721 mmHg 70%
    04:00 +22°C° 0 mm 5 mps 720 mmHg 71%
    05:00 +22°C° 0 mm 5 mps 720 mmHg 73%
    06:00 +22°C° 0 mm 6 mps 720 mmHg 73%
    07:00 +22°C° 0 mm 6 mps 721 mmHg 73%
    08:00 +23°C° 0 mm 6 mps 721 mmHg 73%
    09:00 +24°C° 0 mm 6 mps 721 mmHg 68%
    10:00 +27°C° 0 mm 7 mps 721 mmHg 62%
    11:00 +28°C° 0 mm 7 mps 721 mmHg 57%
    12:00 +29°C° 0 mm 7 mps 720 mmHg 55%
    13:00 +30°C° 0 mm 7 mps 719 mmHg 53%
    14:00 +32°C° 0 mm 7 mps 718 mmHg 51%
    15:00 +30°C° 0 mm 6 mps 718 mmHg 54%
    16:00 +29°C° 0 mm 6 mps 718 mmHg 57%
    17:00 +29°C° 0 mm 5 mps 717 mmHg 60%
    18:00 +28°C° 0 mm 5 mps 718 mmHg 61%
    19:00 +28°C° 0 mm 5 mps 718 mmHg 62%
    20:00 +27°C° 0 mm 5 mps 719 mmHg 63%
    21:00 +27°C° 0 mm 5 mps 719 mmHg 65%
    22:00 +27°C° 0 mm 5 mps 720 mmHg 67%
    23:00 +26°C° 0 mm 6 mps 720 mmHg 68%

    27 May, Monday

    Time Temperature Precipitation Wind Pressure Humidity
    00:00 +26°C° 0 mm 6 mps 720 mmHg 71%
    01:00 +26°C° 0 mm 5 mps 719 mmHg 74%
    02:00 +25°C° 0 mm 5 mps 719 mmHg 77%
    03:00 +25°C° 0 mm 5 mps 719 mmHg 78%
    04:00 +25°C° 0 mm 5 mps 719 mmHg 80%
    05:00 +25°C° 0 mm 5 mps 720 mmHg 81%
    06:00 +25°C° 0 mm 5 mps 720 mmHg 81%
    07:00 +25°C° 0 mm 5 mps 721 mmHg 81%
    08:00 +25°C° 0 mm 5 mps 722 mmHg 80%
    09:00 +26°C° 0 mm 5 mps 722 mmHg 78%
    10:00 +27°C° 0 mm 5 mps 722 mmHg 75%
    11:00 +28°C° 0 mm 5 mps 722 mmHg 72%
    12:00 +29°C° 0 mm 5 mps 721 mmHg 68%
    13:00 +30°C° 0 mm 5 mps 720 mmHg 63%
    14:00 +32°C° 0 mm 6 mps 719 mmHg 58%
    15:00 +32°C° 0 mm 5 mps 719 mmHg 61%
    16:00 +30°C° 0 mm 4 mps 719 mmHg 64%
    17:00 +29°C° 0 mm 3 mps 719 mmHg 67%
    18:00 +28°C° 0 mm 3 mps 720 mmHg 73%
    19:00 +27°C° 0 mm 2 mps 720 mmHg 78%
    20:00 +25°C° 0 mm 2 mps 721 mmHg 83%
    21:00 +25°C° 0.1 mm 1 mps 721 mmHg 86%
    22:00 +25°C° 0.1 mm 1 mps 722 mmHg 89%
    23:00 +24°C° 0.1 mm 1 mps 722 mmHg 92%

    28 May, Tuesday

    Time Temperature Precipitation Wind Pressure Humidity
    00:00 +24°C° 0.1 mm 1 mps 722 mmHg 93%
    01:00 +24°C° 0.1 mm 1 mps 722 mmHg 94%
    02:00 +23°C° 0.1 mm 1 mps 721 mmHg 95%
    03:00 +23°C° 0.1 mm 1 mps 721 mmHg 95%
    04:00 +23°C° 0.1 mm 1 mps 722 mmHg 96%
    05:00 +23°C° 0.1 mm 1 mps 722 mmHg 96%
    06:00 +23°C° 0.3 mm 1 mps 722 mmHg 95%
    07:00 +23°C° 0.3 mm 2 mps 723 mmHg 95%
    08:00 +21°C° 0.3 mm 3 mps 723 mmHg 94%
    09:00 +21°C° 0.1 mm 3 mps 723 mmHg 92%
    10:00 +21°C° 0.1 mm 3 mps 723 mmHg 89%
    11:00 +22°C° 0.1 mm 3 mps 723 mmHg 87%
    12:00 +24°C° 0 mm 2 mps 723 mmHg 81%
    13:00 +26°C° 0 mm 2 mps 722 mmHg 75%
    14:00 +27°C° 0 mm 1 mps 721 mmHg 69%
    15:00 +28°C° 0 mm 1 mps 721 mmHg 71%
    16:00 +28°C° 0 mm 1 mps 721 mmHg 72%
    17:00 +28°C° 0 mm 1 mps 721 mmHg 74%
    18:00 +25°C° 0 mm 0 mps 721 mmHg 78%
    19:00 +24°C° 0 mm 0 mps 721 mmHg 83%
    20:00 +23°C° 0 mm 0 mps 722 mmHg 87%
    21:00 +23°C° 0 mm 0 mps 722 mmHg 86%
    22:00 +23°C° 0 mm 0 mps 722 mmHg 86%
    23:00 +23°C° 0 mm 0 mps 722 mmHg 85%

    29 May, Wednesday

    Time Temperature Precipitation Wind Pressure Humidity
    00:00 +22°C° 0 mm 0 mps 722 mmHg 88%
    01:00 +22°C° 0 mm 0 mps 722 mmHg 90%
    02:00 +21°C° 0 mm 0 mps 721 mmHg 93%
    03:00 +21°C° 0 mm 0 mps 721 mmHg 94%
    04:00 +23°C° 0 mm 1 mps 721 mmHg 96%
    05:00 +22°C° 0 mm 1 mps 722 mmHg 97%
    06:00 +23°C° 0.1 mm 2 mps 722 mmHg 95%
    07:00 +24°C° 0.1 mm 2 mps 722 mmHg 93%
    08:00 +25°C° 0.1 mm 3 mps 723 mmHg 92%
    09:00 +26°C° 0 mm 4 mps 722 mmHg 83%
    10:00 +28°C° 0 mm 5 mps 722 mmHg 75%
    11:00 +30°C° 0 mm 6 mps 722 mmHg 66%
    12:00 +32°C° 0 mm 6 mps 721 mmHg 63%
    13:00 +32°C° 0 mm 6 mps 720 mmHg 60%
    14:00 +33°C° 0 mm 6 mps 719 mmHg 57%
    15:00 +32°C° 0 mm 6 mps 719 mmHg 60%
    16:00 +32°C° 0 mm 5 mps 718 mmHg 62%
    17:00 +30°C° 0 mm 4 mps 718 mmHg 65%
    18:00 +29°C° 0 mm 4 mps 718 mmHg 67%
    19:00 +29°C° 0 mm 5 mps 719 mmHg 69%
    20:00 +28°C° 0 mm 5 mps 719 mmHg 71%
    21:00 +28°C° 0 mm 5 mps 719 mmHg 72%
    22:00 +28°C° 0 mm 5 mps 720 mmHg 72%
    23:00 +27°C° 0 mm 5 mps 720 mmHg 72%
    Show more